Patuxent River, MD

9:05 PM EDT on September 24, 2016 (GMT -0400)
Patuxent River Naval Air Station

Weather History for KNHK - January, 2013

Change the Weather History Date:

Friday, January 25, 2013

  Actual Average Record
Temperature  
Mean Temperature 21 °F -  
Max Temperature 26 °F 43 °F 60 °F (1978)
Min Temperature 16 °F 28 °F 10 °F (2003)
Degree Days  
Heating Degree Days 44    
Moisture  
Dew Point 10 °F    
Average Humidity 62    
Maximum Humidity 93    
Minimum Humidity 33    
Precipitation  
Precipitation 0.06 in - - ()
Snow  
Snow 0.00 in - - ()
Snow Depth 4.00 in    
Sea Level Pressure  
Sea Level Pressure 30.28 in    
Wind  
Wind Speed 7 mph (SW)    
Max Wind Speed 13 mph    
Max Gust Speed 17 mph    
Visibility 7 miles    
Events Snow    
Averages and records for this station are not official NWS values.
T = Trace of Precipitation, MM = Missing Value Source: NWS Daily Summary

Daily Weather History Graph

Daily Weather History Graph

Search for Another Location

Airport or City:

Trip Planner

Search our weather history database for the weather conditions in past years. The results will help you decide how hot, cold, wet, or windy it might be!

Date:

Astronomy

Jan. 25, 2013 Rise Set
Actual Time 7:15 AM EST 5:20 PM EST
Civil Twilight 6:47 AM EST 5:48 PM EST
Nautical Twilight 6:15 AM EST 6:20 PM EST
Astronomical Twilight 5:44 AM EST 6:52 PM EST
Moon 4:15 PM EST 5:53 AM EST
Length of Visible Light 11h 01m
Length of Day
10h 04m
Waxing Gibbous, 98% of the Moon is Illuminated
Jan 25
Waxing Gibbous
Jan 26
Full
Feb 3
Last Quarter
Feb 10
New
Feb 17
First Quarter

Hourly Weather History & Observations

Time (EST) Temp. Windchill Dew Point Humidity Pressure Visibility Wind Dir Wind Speed Gust Speed Precip Events Conditions
12:52 AM 19.0 °F 9.0 °F 3.0 °F 50% 30.51 in 10.0 mi WSW 8.1 mph - N/A   Clear
1:52 AM 19.0 °F 9.0 °F 1.9 °F 47% 30.51 in 10.0 mi WSW 8.1 mph - N/A   Clear
2:52 AM 18.0 °F 7.7 °F 1.9 °F 50% 30.51 in 10.0 mi WSW 8.1 mph - N/A   Clear
3:52 AM 21.0 °F 9.9 °F 1.9 °F 44% 30.49 in 10.0 mi NW 10.4 mph - N/A   Clear
4:52 AM 21.0 °F 9.3 °F 1.9 °F 44% 30.49 in 10.0 mi NW 11.5 mph - N/A   Clear
5:10 AM 21.2 °F 9.5 °F 1.4 °F 42% 30.49 in 10.0 mi NW 11.5 mph - N/A   Clear
5:52 AM 21.9 °F 11.0 °F 1.9 °F 42% 30.50 in 10.0 mi NW 10.4 mph - N/A   Scattered Clouds
6:52 AM 19.9 °F 12.1 °F 3.0 °F 48% 30.47 in 10.0 mi NW 5.8 mph - N/A   Mostly Cloudy
7:52 AM 16.0 °F 8.8 °F 3.9 °F 59% 30.48 in 10.0 mi WSW 4.6 mph - N/A   Mostly Cloudy
8:52 AM 21.0 °F 14.6 °F 3.9 °F 48% 30.48 in 10.0 mi WSW 4.6 mph - N/A   Mostly Cloudy
9:52 AM 23.0 °F - 1.9 °F 40% 30.45 in 10.0 mi Calm Calm - N/A   Overcast
10:52 AM 24.1 °F 18.2 °F 1.0 °F 37% 30.42 in 10.0 mi Variable 4.6 mph - N/A   Overcast
11:52 AM 25.0 °F 17.1 °F 3.0 °F 39% 30.38 in 10.0 mi SSW 6.9 mph - N/A   Overcast
12:52 PM 25.0 °F 17.1 °F 1.0 °F 36% 30.33 in 10.0 mi SSW 6.9 mph - N/A   Overcast
1:52 PM 25.0 °F 17.1 °F -0.9 °F 33% 30.27 in 10.0 mi SSE 6.9 mph - N/A   Overcast
2:52 PM 26.1 °F 16.2 °F 3.9 °F 39% 30.24 in 10.0 mi SE 10.4 mph - N/A   Overcast
3:15 PM 24.8 °F 13.4 °F 8.6 °F 50% 30.22 in 9.0 mi SSE 12.7 mph 17.3 mph 0.00 in Snow Light Snow
3:52 PM 24.1 °F 16.0 °F 14.0 °F 65% 30.20 in 7.0 mi South 6.9 mph - 0.00 in Snow Light Snow
4:08 PM 24.8 °F 16.1 °F 15.8 °F 69% 30.20 in 2.5 mi SSW 8.1 mph - 0.01 in Snow Light Snow
4:14 PM 23.0 °F 13.9 °F 15.8 °F 74% 30.20 in 1.5 mi South 8.1 mph - 0.01 in Snow Light Snow
4:28 PM 23.0 °F 14.7 °F 17.6 °F 80% 30.20 in 0.8 mi SSW 6.9 mph - 0.01 in Snow Light Snow
4:52 PM 23.0 °F 18.4 °F 18.0 °F 81% 30.19 in 0.5 mi South 3.5 mph - 0.02 in Snow Snow
5:00 PM 23.0 °F - 17.6 °F 80% 30.19 in 0.5 mi Calm Calm - 0.01 in Snow Snow
5:17 PM 21.2 °F 13.6 °F 19.4 °F 93% 30.17 in 1.0 mi South 5.8 mph - 0.01 in Snow Light Snow
5:52 PM 21.9 °F 14.5 °F 18.0 °F 85% 30.16 in 1.0 mi South 5.8 mph - 0.04 in Snow Light Snow
6:04 PM 23.0 °F 17.0 °F 17.6 °F 80% 30.16 in 2.0 mi SSW 4.6 mph - 0.00 in Snow Light Snow
6:09 PM 23.0 °F 18.4 °F 17.6 °F 80% 30.16 in 3.0 mi SSW 3.5 mph - 0.00 in Snow Light Snow
6:18 PM 23.0 °F 17.0 °F 17.6 °F 80% 30.15 in 2.5 mi South 4.6 mph - 0.00 in Snow Light Snow
6:38 PM 23.0 °F 17.0 °F 17.6 °F 80% 30.15 in 3.0 mi SSW 4.6 mph - 0.00 in Snow Light Snow
6:52 PM 23.0 °F 18.4 °F 18.0 °F 81% 30.14 in 9.0 mi South 3.5 mph - 0.00 in Snow Light Snow
6:59 PM 23.0 °F 18.4 °F 17.6 °F 80% 30.13 in 9.0 mi South 3.5 mph - 0.00 in   Overcast
7:52 PM 23.0 °F 15.8 °F 17.1 °F 78% 30.12 in 10.0 mi SSW 5.8 mph - 0.00 in   Mostly Cloudy
8:52 PM 24.1 °F 16.0 °F 17.1 °F 75% 30.10 in 10.0 mi WSW 6.9 mph - N/A   Overcast
9:52 PM 19.9 °F 12.1 °F 15.1 °F 81% 30.09 in 10.0 mi WSW 5.8 mph - N/A   Scattered Clouds
10:52 PM 23.0 °F 14.7 °F 17.1 °F 78% 30.09 in 10.0 mi West 6.9 mph - N/A   Mostly Cloudy
11:52 PM 24.1 °F 15.2 °F 18.0 °F 77% 30.09 in 10.0 mi West 8.1 mph - N/A   Overcast